Starlink 5484

operational
NORAD ID: 55628 Int'l Des: 2023-021 Owner: SPXS Country: US Constellation: starlink
LEOCIRCULAR

About Starlink 5484

Description loading...

Live Position

Loading 3D Globe...

Upcoming Passes

Altitude History

Altitude vs Time

uPlot chart will show altitude changes over time

Two-Line Element Set

1 55628U 23021A 26102.45382838 -.00000005 00000-0 74143-5 0 9996
2 55628 69.9987 119.4130 0004021 267.3355 92.7343 14.98329611173354
Epoch: Apr 12, 2026 • Age: 10 hours

Current Status

Altitude 576.8 km
Velocity 7.57 km/s
Sub-Earth Point -13.96°S, 34.39°W
Launch Date Feb 17, 2023
Age 3.1 years
Type internet

Technical Details

Classification Payload
Mass 305.00 kg
Dry Mass 290.00 kg
Total Mass 305.00 kg
Length 0.20 m
Diameter 2.80 m
Span 9.00 m
Shape Box + pan
Manufacturer SPXS
Bus Type Starlink
Phase Status In Orbit
Owner/State SPXS/US

Large Constellations

Loading constellations...